Rogers, AR

12:50 AM CDT on May 30, 2017 (GMT -0500)
Rogers Municipal-Carter

Weather History for KROG - October, 2014

Change the Weather History Date:

Monday, October 13, 2014

  Actual Average Record
Temperature  
Mean Temperature 60 °F -  
Max Temperature 66 °F 67 °F 78 °F (1999)
Min Temperature 52 °F 46 °F 37 °F (2006)
Degree Days  
Heating Degree Days 6    
Growing Degree Days 10 (Base 50)    
Moisture  
Dew Point 58 °F    
Average Humidity 91    
Maximum Humidity 100    
Minimum Humidity 77    
Precipitation  
Precipitation 2.43 in - - ()
Sea Level Pressure  
Sea Level Pressure 29.59 in    
Wind  
Wind Speed 11 mph (WSW)    
Max Wind Speed 20 mph    
Max Gust Speed 31 mph    
Visibility 7 miles    
Events Rain , Thunderstorm    
Averages and records for this station are not official NWS values.
T = Trace of Precipitation, MM = Missing Value Source: NWS Daily Summary

Daily Weather History Graph

Daily Weather History Graph

Search for Another Location

Airport or City:

Trip Planner

Search our weather history database for the weather conditions in past years. The results will help you decide how hot, cold, wet, or windy it might be!

Date:

Astronomy

Oct. 13, 2014 Rise Set
Actual Time 7:21 AM CDT 6:42 PM CDT
Civil Twilight 6:55 AM CDT 7:08 PM CDT
Nautical Twilight 6:26 AM CDT 7:38 PM CDT
Astronomical Twilight 5:56 AM CDT 8:08 PM CDT
Moon 10:59 PM CDT (10/13) 12:31 PM CDT (10/13)
Length of Visible Light 12h 12m
Length of Day
11h 21m
Waning Gibbous, 70% of the Moon is Illuminated
Oct 13
Waning Gibbous
Oct 15
Last Quarter
Oct 23
New
Oct 30
First Quarter
Nov 6
Full

Hourly Weather History & Observations

Time (CDT) Temp. Dew Point Humidity Pressure Visibility Wind Dir Wind Speed Gust Speed Precip Events Conditions
12:07 AM 64.4 °F 60.8 °F 88% 29.73 in 10.0 mi SE 6.9 mph - N/A   Overcast
12:57 AM 64.9 °F 61.0 °F 87% 29.70 in 10.0 mi SE 9.2 mph - N/A   Overcast
1:57 AM 66.0 °F 62.1 °F 87% 29.68 in 10.0 mi SE 6.9 mph - N/A   Overcast
2:33 AM 66.2 °F 62.6 °F 88% 29.67 in 10.0 mi ESE 9.2 mph - N/A   Overcast
2:57 AM 66.0 °F 62.1 °F 87% 29.62 in 10.0 mi SE 13.8 mph 19.6 mph N/A   Overcast
3:03 AM 66.2 °F 62.6 °F 88% 29.66 in 8.0 mi SE 13.8 mph 19.6 mph 0.01 in Thunderstorm Thunderstorm
3:33 AM 64.4 °F 62.6 °F 94% 29.64 in 8.0 mi SE 11.5 mph 27.6 mph 0.25 in Rain , Thunderstorm Thunderstorms and Rain
3:57 AM 64.9 °F 63.0 °F 93% 29.58 in 10.0 mi East 10.4 mph - 0.32 in Rain , Thunderstorm Light Thunderstorms and Rain
4:04 AM 64.4 °F 62.6 °F 94% 29.60 in 6.0 mi East 13.8 mph - 0.07 in Rain , Thunderstorm Heavy Rain
4:15 AM 64.4 °F 62.6 °F 94% 29.60 in 3.0 mi East 9.2 mph 19.6 mph 0.19 in Rain , Thunderstorm Heavy Thunderstorms and Rain
4:23 AM 64.4 °F 62.6 °F 94% 29.60 in 4.0 mi ESE 8.1 mph - 0.25 in Rain , Thunderstorm Thunderstorms and Rain
4:35 AM 64.4 °F 62.6 °F 94% 29.61 in 3.0 mi South 4.6 mph - 0.45 in Rain , Thunderstorm Heavy Thunderstorms and Rain
4:57 AM 64.9 °F 63.0 °F 93% 29.56 in 4.0 mi Variable 4.6 mph - 0.58 in Rain , Thunderstorm Heavy Thunderstorms and Rain
5:01 AM 64.4 °F 62.6 °F 94% 29.58 in 4.0 mi North 3.5 mph - 0.08 in Rain Heavy Rain
5:03 AM 64.4 °F 62.6 °F 94% 29.58 in 4.0 mi NW 3.5 mph - 0.10 in Rain , Thunderstorm Heavy Rain
5:06 AM 64.4 °F 62.6 °F 94% 29.59 in 3.0 mi WNW 6.9 mph - 0.13 in Rain , Thunderstorm Heavy Rain
5:22 AM 62.6 °F 60.8 °F 94% 29.56 in 2.5 mi NW 15.0 mph - 0.67 in Rain , Thunderstorm Heavy Thunderstorms and Rain
5:28 AM 62.6 °F 60.8 °F 94% 29.57 in 3.0 mi WNW 15.0 mph - 0.72 in Rain , Thunderstorm Rain
5:47 AM 62.6 °F 60.8 °F 94% 29.56 in 10.0 mi WNW 10.4 mph - 0.81 in Rain , Thunderstorm Rain
5:50 AM 60.8 °F 60.8 °F 100% 29.56 in 10.0 mi WNW 10.4 mph - 0.83 in Rain Rain
5:52 AM 60.8 °F 60.8 °F 100% 29.56 in 10.0 mi WNW 12.7 mph - 0.83 in Rain , Thunderstorm Rain
5:57 AM 61.0 °F 60.1 °F 97% 29.53 in 10.0 mi WNW 10.4 mph - 0.84 in Rain , Thunderstorm Rain
6:03 AM 60.8 °F 60.8 °F 100% 29.56 in 10.0 mi West 10.4 mph - 0.01 in Rain , Thunderstorm Rain
6:25 AM 60.8 °F 60.8 °F 100% 29.58 in 8.0 mi Calm Calm - 0.09 in Rain , Thunderstorm Rain
6:29 AM 60.8 °F 60.8 °F 100% 29.58 in 5.0 mi Calm Calm - 0.11 in Rain Rain
6:42 AM 60.8 °F 60.8 °F 100% 29.58 in 4.0 mi SSE 4.6 mph - 0.16 in Rain , Thunderstorm Rain
6:57 AM 61.0 °F 60.1 °F 97% 29.57 in 8.0 mi SSE 8.1 mph - 0.20 in Rain Rain
7:43 AM 60.8 °F 59.0 °F 94% 29.59 in 7.0 mi SE 10.4 mph - 0.13 in Rain Rain
7:46 AM 60.8 °F 59.0 °F 94% 29.59 in 7.0 mi SE 10.4 mph - 0.14 in Rain Rain
7:52 AM 60.8 °F 59.0 °F 94% 29.59 in 7.0 mi SSE 12.7 mph - 0.14 in Rain Rain
7:57 AM 61.0 °F 59.0 °F 93% 29.57 in 8.0 mi SE 9.2 mph - 0.14 in Rain Light Rain
8:57 AM 61.0 °F 59.0 °F 93% 29.50 in 10.0 mi SE 15.0 mph - 0.01 in Rain Light Rain
9:46 AM 62.6 °F 59.0 °F 88% 29.58 in 10.0 mi SW 9.2 mph - 0.00 in   Mostly Cloudy
9:52 AM 62.6 °F 59.0 °F 88% 29.57 in 10.0 mi SSW 6.9 mph - 0.00 in   Mostly Cloudy
9:57 AM 62.1 °F 59.0 °F 90% 29.55 in 10.0 mi WSW 6.9 mph - 0.00 in   Mostly Cloudy
10:03 AM 62.6 °F 59.0 °F 88% 29.58 in 10.0 mi SW 8.1 mph - N/A   Overcast
10:12 AM 62.6 °F 59.0 °F 88% 29.57 in 10.0 mi SW 6.9 mph - N/A   Overcast
10:15 AM 62.6 °F 59.0 °F 88% 29.57 in 10.0 mi SW 8.1 mph - N/A   Overcast
10:21 AM 62.6 °F 59.0 °F 88% 29.58 in 10.0 mi SW 12.7 mph - N/A   Overcast
10:38 AM 62.6 °F 59.0 °F 88% 29.58 in 6.0 mi SSW 10.4 mph - 0.00 in Rain Light Rain
10:43 AM 62.6 °F 59.0 °F 88% 29.59 in 6.0 mi SSW 10.4 mph - 0.00 in Rain Light Rain
10:57 AM 62.1 °F 59.0 °F 90% 29.56 in 6.0 mi South 13.8 mph - 0.00 in Rain Light Rain
11:21 AM 60.8 °F 57.2 °F 88% 29.58 in 10.0 mi SSW 11.5 mph - 0.00 in   Overcast
11:25 AM 60.8 °F 57.2 °F 88% 29.58 in 9.0 mi SSW 9.2 mph - 0.00 in Rain Light Rain
11:57 AM 60.8 °F 59.0 °F 94% 29.57 in 8.0 mi South 16.1 mph 21.9 mph 0.02 in Rain Light Rain
11:59 AM 60.8 °F 57.2 °F 88% 29.57 in 7.0 mi South 12.7 mph 21.9 mph 0.02 in Rain Light Rain
12:26 PM 60.8 °F 57.2 °F 88% 29.56 in 2.5 mi SW 16.1 mph 23.0 mph 0.05 in Rain Rain
12:29 PM 60.8 °F 57.2 °F 88% 29.57 in 3.0 mi SSW 13.8 mph 23.0 mph 0.05 in Rain Light Rain
12:36 PM 60.8 °F 57.2 °F 88% 29.57 in 3.0 mi SSW 13.8 mph 23.0 mph 0.06 in Rain Light Rain
12:43 PM 59.0 °F 57.2 °F 94% 29.56 in 3.0 mi SW 10.4 mph 21.9 mph 0.08 in Rain Rain
12:57 PM 61.0 °F 59.0 °F 93% 29.54 in 10.0 mi South 11.5 mph - 0.09 in Rain Light Rain
1:14 PM 62.6 °F 57.2 °F 82% 29.55 in 10.0 mi SSW 13.8 mph 23.0 mph 0.00 in   Overcast
1:57 PM 62.1 °F 57.9 °F 86% 29.50 in 10.0 mi South 15.0 mph - 0.00 in   Overcast
2:22 PM 62.6 °F 59.0 °F 88% 29.52 in 10.0 mi SSW 12.7 mph 21.9 mph N/A   Overcast
2:30 PM 64.4 °F 57.2 °F 77% 29.52 in 10.0 mi SSW 19.6 mph 25.3 mph N/A   Overcast
2:38 PM 62.6 °F 57.2 °F 82% 29.52 in 10.0 mi SSW 15.0 mph 26.5 mph N/A   Overcast
2:57 PM 64.0 °F 57.0 °F 78% 29.49 in 10.0 mi SSW 19.6 mph 29.9 mph N/A   Overcast
3:57 PM 63.0 °F 57.0 °F 81% 29.49 in 10.0 mi SSW 16.1 mph 24.2 mph N/A   Overcast
4:41 PM 60.8 °F 57.2 °F 88% 29.54 in 1.0 mi West 16.1 mph 20.7 mph 0.12 in Rain Heavy Rain
4:44 PM 60.8 °F 57.2 °F 88% 29.54 in 4.0 mi West 15.0 mph 20.7 mph 0.15 in Rain Heavy Rain
4:48 PM 59.0 °F 57.2 °F 94% 29.54 in 4.0 mi West 17.3 mph 20.7 mph 0.15 in Rain Light Rain
4:57 PM 57.2 °F 55.4 °F 94% 29.55 in 10.0 mi WNW 16.1 mph - 0.15 in Rain Light Rain
4:59 PM 57.9 °F 55.0 °F 90% 29.53 in 10.0 mi West 15.0 mph - 0.15 in Rain Light Rain
5:32 PM 57.2 °F 55.4 °F 94% 29.56 in 2.5 mi WNW 12.7 mph - 0.02 in Rain Light Rain
5:41 PM 57.2 °F 55.4 °F 94% 29.57 in 4.0 mi West 16.1 mph 20.7 mph 0.02 in Rain Light Rain
5:50 PM 57.2 °F 55.4 °F 94% 29.59 in 2.5 mi West 13.8 mph 28.8 mph 0.02 in Rain Light Rain
5:57 PM 55.9 °F 54.0 °F 93% 29.57 in 2.5 mi WNW 13.8 mph 21.9 mph 0.02 in Rain Light Rain
6:04 PM 55.4 °F 53.6 °F 94% 29.60 in 1.8 mi WNW 12.7 mph - 0.01 in Rain Light Rain
6:15 PM 55.4 °F 53.6 °F 94% 29.60 in 2.0 mi WNW 17.3 mph 31.1 mph 0.01 in Rain Light Rain
6:32 PM 55.4 °F 53.6 °F 94% 29.61 in 1.8 mi WNW 13.8 mph 21.9 mph 0.02 in Rain Light Rain
6:42 PM 55.4 °F 53.6 °F 94% 29.61 in 2.0 mi WNW 12.7 mph 27.6 mph 0.02 in Rain Light Rain
6:54 PM 55.4 °F 53.6 °F 94% 29.61 in 1.8 mi West 16.1 mph 26.5 mph 0.03 in Rain Light Rain
6:57 PM 55.0 °F 53.1 °F 93% 29.60 in 1.8 mi West 13.8 mph 26.5 mph 0.03 in Rain Light Rain
7:00 PM 55.4 °F 53.6 °F 94% 29.61 in 2.0 mi WNW 15.0 mph 26.5 mph 0.00 in Rain Light Rain
7:05 PM 55.4 °F 53.6 °F 94% 29.62 in 3.0 mi WNW 19.6 mph 26.5 mph 0.00 in Rain Light Rain
7:57 PM 54.0 °F 52.0 °F 93% 29.62 in 6.0 mi WNW 16.1 mph 24.2 mph 0.00 in Rain Light Rain
8:25 PM 53.6 °F 51.8 °F 94% 29.66 in 2.5 mi WNW 13.8 mph 23.0 mph 0.02 in Rain Light Rain
8:39 PM 53.6 °F 51.8 °F 94% 29.67 in 2.5 mi WNW 16.1 mph 25.3 mph 0.02 in Rain Light Rain
8:50 PM 53.6 °F 51.8 °F 94% 29.67 in 3.0 mi WNW 17.3 mph - 0.03 in Rain Light Rain
8:57 PM 53.1 °F 51.1 °F 93% 29.65 in 7.0 mi WNW 19.6 mph 25.3 mph 0.04 in Rain Light Rain
9:57 PM 53.1 °F 51.1 °F 93% 29.70 in 10.0 mi WNW 15.0 mph - 0.00 in Rain Light Rain
10:24 PM 53.6 °F 50.0 °F 88% 29.73 in 9.0 mi WNW 15.0 mph 20.7 mph 0.00 in Rain Light Rain
10:31 PM 53.6 °F 50.0 °F 88% 29.73 in 10.0 mi WNW 16.1 mph 21.9 mph 0.00 in Rain Light Rain
10:57 PM 53.1 °F 50.0 °F 89% 29.72 in 10.0 mi WNW 12.7 mph 20.7 mph 0.01 in Rain Light Rain
11:04 PM 53.6 °F 50.0 °F 88% 29.73 in 10.0 mi WNW 13.8 mph 21.9 mph 0.00 in Rain Light Rain
11:57 PM 52.0 °F 50.0 °F 93% 29.71 in 10.0 mi WNW 13.8 mph 18.4 mph 0.00 in   Overcast